Погода в Уисбече

Великобритания     52°40′11″N   0°10′08″E
темп.,
°C
ветер,
м/с
пор.,
м/с
влажн.,
%
обл.,
%
осадки,
мм/ч
давл.,
гПа
погр.,
м
19 апреля, пн
пн1901:00+4вюв11864 0.0 102515
04:00+3юв00860 0.0 102413
07:00+4сз11845 0.0 102315
10:00+10ссв11655 0.0 1023449
13:00+12ссв22580 0.0 1022912
16:00+12ссв546815 0.0 1020482
19:00+11св367480 0.0 1020160
22:00+7вюв34825 0.0 102077
20 апреля, вт
вт2001:00+5юв22865 0.0 102016
04:00+5вюв11865 0.0 101913
07:00+6св118244 0.0 101912
10:00+11ссв226657 0.0 1020439
13:00+13с326341 0.1 1019915
16:00+13ссв336334 0.2 1018674
19:00+11св357769 0.2 1018122
22:00+8всв228896 0.0 101915
21 апреля, ср
ср2101:00+7св228999 0.0 101921
04:00+7ссв488938 0.0 1020183
07:00+8ссв71193100 0.2 1021610
10:00+8ссв81070100 0.3 1023908
13:00+9ссв78605 0.3 10241000
16:00+8ссв786215 0.0 10241109
19:00+7ссв676848 0.0 1025941
22:00+4св477227 0.0 1026172
22 апреля, чт
чт2201:00+3св34745 0.0 102688
04:00+2ссз347895 0.0 102665
07:00+3ссз358162 0.0 1027148
10:00+7с356258 0.0 1027648
13:00+9ссв445520 0.0 1028857
16:00+10ссв45515 0.0 1027681
19:00+7св46675 0.0 1028339
22:00+4всв33855 0.0 102954
23 апреля, пт
пт2301:00+3всв22880 0.0 102941
04:00+3ссв22890 0.0 102943
07:00+5ссв22880 0.0 102972
10:00+9св34665 0.0 1030843
13:00+12св445525 0.0 10291061
16:00+12св55555 0.0 1028688
19:00+9св57690 0.0 1028247
22:00+4в368733 0.0 102995